YV2183 SVCS-SVBC

Flight info

Callsign YV2183
Flight time 0h 59m
Altitude 11000
Route GUTUX1 USOTI W14 BNA
Aircraft P28U/L-SDGRY/S

Departure

Time 2026-04-25 00:12
Airport Caracas Óscar Machado Zuloaga International Airport (SVCS)

Arrival

Time 2026-04-25 01:11
Airport General José Antonio Anzoategui International Airport (SVBC)
Time Latitude Longitude Altitude Speed Heading
2026-04-25 00:00 10.28850 -66.82074 2163 ft 0 kts 184°
2026-04-25 00:04 10.28846 -66.82075 2159 ft 3 kts 186°
2026-04-25 00:05 10.28842 -66.82076 2159 ft 4 kts 198°
2026-04-25 00:05 10.28832 -66.82101 2157 ft 4 kts 271°
2026-04-25 00:05 10.28816 -66.82121 2156 ft 4 kts 183°
2026-04-25 00:05 10.28786 -66.82124 2161 ft 5 kts 214°
2026-04-25 00:06 10.28781 -66.82165 2162 ft 7 kts 273°
2026-04-25 00:06 10.28784 -66.82227 2161 ft 10 kts 275°
2026-04-25 00:06 10.28790 -66.82305 2161 ft 12 kts 273°
2026-04-25 00:06 10.28794 -66.82396 2157 ft 14 kts 274°
2026-04-25 00:07 10.28803 -66.82487 2162 ft 10 kts 275°
2026-04-25 00:07 10.28800 -66.82525 2163 ft 2 kts 189°
2026-04-25 00:07 10.28796 -66.82524 2163 ft 0 kts 151°
2026-04-25 00:10 10.28795 -66.82523 2163 ft 3 kts 151°
2026-04-25 00:10 10.28763 -66.82514 2164 ft 5 kts 184°
2026-04-25 00:10 10.28751 -66.82503 2164 ft 0 kts 94°
2026-04-25 00:11 10.28740 -66.82319 2162 ft 50 kts 94°
2026-04-25 00:11 10.28708 -66.81831 2172 ft 85 kts 94°
2026-04-25 00:11 10.28652 -66.81190 2313 ft 91 kts 99°
2026-04-25 00:11 10.28594 -66.80541 2522 ft 94 kts 95°
2026-04-25 00:12 10.28568 -66.79877 2763 ft 95 kts 94°
2026-04-25 00:12 10.28535 -66.79199 3001 ft 94 kts 94°
2026-04-25 00:12 10.28496 -66.78519 3189 ft 99 kts 95°
2026-04-25 00:12 10.28414 -66.77815 3398 ft 101 kts 97°
2026-04-25 00:13 10.28245 -66.77127 3646 ft 100 kts 110°
2026-04-25 00:13 10.27960 -66.76466 3814 ft 105 kts 115°
2026-04-25 00:13 10.27619 -66.75801 4001 ft 107 kts 117°
2026-04-25 00:13 10.27311 -66.75125 4248 ft 105 kts 110°
2026-04-25 00:14 10.27016 -66.74428 4447 ft 106 kts 113°
2026-04-25 00:14 10.26701 -66.73747 4649 ft 108 kts 114°
2026-04-25 00:14 10.26385 -66.73063 4849 ft 107 kts 113°
2026-04-25 00:14 10.26061 -66.72379 4996 ft 110 kts 117°
2026-04-25 00:15 10.25719 -66.71692 5176 ft 109 kts 117°
2026-04-25 00:15 10.25365 -66.70998 5333 ft 111 kts 117°
2026-04-25 00:15 10.25006 -66.70310 5498 ft 111 kts 117°
2026-04-25 00:15 10.24638 -66.69616 5652 ft 111 kts 118°
2026-04-25 00:16 10.24277 -66.68920 5791 ft 112 kts 118°
2026-04-25 00:16 10.23922 -66.68213 5946 ft 112 kts 117°
2026-04-25 00:16 10.23552 -66.67511 6076 ft 113 kts 118°
2026-04-25 00:16 10.23191 -66.66803 6217 ft 113 kts 117°
2026-04-25 00:17 10.22820 -66.66097 6346 ft 114 kts 117°
2026-04-25 00:17 10.22461 -66.65376 6480 ft 114 kts 117°
2026-04-25 00:17 10.22104 -66.64655 6605 ft 114 kts 117°
2026-04-25 00:17 10.21745 -66.63934 6737 ft 114 kts 117°
2026-04-25 00:18 10.21391 -66.63223 6853 ft 114 kts 117°
2026-04-25 00:18 10.21034 -66.62506 6977 ft 113 kts 117°
2026-04-25 00:18 10.20678 -66.61795 7091 ft 113 kts 117°
2026-04-25 00:18 10.20323 -66.61084 7205 ft 113 kts 117°
2026-04-25 00:19 10.19962 -66.60367 7323 ft 113 kts 116°
2026-04-25 00:19 10.19603 -66.59658 7434 ft 113 kts 117°
2026-04-25 00:19 10.19244 -66.58952 7551 ft 112 kts 117°
2026-04-25 00:19 10.18885 -66.58245 7662 ft 114 kts 117°
2026-04-25 00:20 10.18514 -66.57524 7788 ft 116 kts 117°
2026-04-25 00:20 10.18140 -66.56787 7934 ft 118 kts 117°
2026-04-25 00:20 10.17765 -66.56060 8073 ft 114 kts 116°
2026-04-25 00:20 10.17408 -66.55358 8163 ft 111 kts 117°
2026-04-25 00:21 10.17049 -66.54668 8240 ft 109 kts 116°
2026-04-25 00:21 10.16697 -66.53984 8304 ft 109 kts 116°
2026-04-25 00:21 10.16344 -66.53306 8377 ft 108 kts 116°
2026-04-25 00:21 10.16006 -66.52630 8446 ft 107 kts 115°
2026-04-25 00:22 10.15667 -66.51964 8501 ft 106 kts 116°
2026-04-25 00:22 10.15329 -66.51300 8552 ft 105 kts 115°
2026-04-25 00:22 10.14983 -66.50626 8625 ft 109 kts 116°
2026-04-25 00:22 10.14629 -66.49935 8724 ft 111 kts 115°
2026-04-25 00:23 10.14274 -66.49239 8823 ft 111 kts 115°
2026-04-25 00:23 10.13925 -66.48551 8921 ft 111 kts 116°
2026-04-25 00:23 10.13568 -66.47845 8994 ft 113 kts 115°
2026-04-25 00:23 10.13207 -66.47115 8980 ft 122 kts 116°
2026-04-25 00:24 10.12799 -66.46340 8981 ft 128 kts 118°
2026-04-25 00:24 10.12367 -66.45545 8969 ft 132 kts 115°
2026-04-25 00:24 10.11942 -66.44699 8971 ft 134 kts 118°
2026-04-25 00:24 10.11486 -66.43874 9000 ft 134 kts 118°
2026-04-25 00:25 10.11020 -66.43052 8992 ft 136 kts 120°
2026-04-25 00:25 10.10535 -66.42230 9001 ft 136 kts 120°
2026-04-25 00:25 10.10058 -66.41404 9000 ft 136 kts 119°
2026-04-25 00:25 10.09582 -66.40570 8999 ft 136 kts 118°
2026-04-25 00:26 10.09101 -66.39740 9004 ft 137 kts 118°
2026-04-25 00:26 10.08616 -66.38909 9001 ft 137 kts 118°
2026-04-25 00:26 10.08131 -66.38076 9007 ft 138 kts 118°
2026-04-25 00:26 10.07643 -66.37237 9007 ft 138 kts 118°
2026-04-25 00:27 10.07162 -66.36413 9007 ft 137 kts 118°
2026-04-25 00:27 10.06675 -66.35579 9005 ft 138 kts 118°
2026-04-25 00:27 10.06203 -66.34734 9006 ft 138 kts 116°
2026-04-25 00:27 10.05742 -66.33872 9009 ft 142 kts 117°
2026-04-25 00:28 10.05261 -66.32973 9013 ft 148 kts 116°
2026-04-25 00:28 10.04765 -66.32044 9017 ft 151 kts 116°
2026-04-25 00:28 10.04258 -66.31099 9016 ft 153 kts 116°
2026-04-25 00:28 10.03749 -66.30149 9015 ft 153 kts 117°
2026-04-25 00:29 10.03237 -66.29189 9014 ft 155 kts 116°
2026-04-25 00:29 10.02726 -66.28227 9009 ft 155 kts 116°
2026-04-25 00:29 10.02211 -66.27264 9009 ft 155 kts 116°
2026-04-25 00:29 10.01705 -66.26308 9004 ft 156 kts 115°
2026-04-25 00:30 10.01461 -66.25246 8993 ft 155 kts 90°
2026-04-25 00:30 10.01505 -66.24154 8997 ft 155 kts 86°
2026-04-25 00:30 10.01544 -66.23059 8994 ft 155 kts 86°
2026-04-25 00:30 10.01615 -66.21971 8995 ft 154 kts 84°
2026-04-25 00:31 10.01697 -66.20885 8997 ft 155 kts 85°
2026-04-25 00:31 10.01835 -66.19800 8999 ft 155 kts 80°
2026-04-25 00:31 10.01997 -66.18718 8999 ft 155 kts 80°
2026-04-25 00:31 10.02155 -66.17637 8996 ft 154 kts 81°
2026-04-25 00:32 10.02259 -66.16924 8990 ft 154 kts 81°
2026-04-25 00:32 10.02416 -66.15846 8990 ft 154 kts 80°
2026-04-25 00:32 10.02625 -66.14420 8993 ft 155 kts 81°
2026-04-25 00:32 10.02732 -66.13691 8994 ft 155 kts 80°
2026-04-25 00:33 10.02892 -66.12605 8998 ft 155 kts 80°
2026-04-25 00:33 10.03049 -66.11534 8996 ft 155 kts 80°
2026-04-25 00:33 10.03214 -66.10438 8999 ft 155 kts 80°
2026-04-25 00:33 10.03374 -66.09369 8996 ft 155 kts 80°
2026-04-25 00:34 10.03534 -66.08288 8996 ft 155 kts 81°
2026-04-25 00:34 10.03696 -66.07209 8994 ft 155 kts 80°
2026-04-25 00:34 10.03848 -66.06130 8993 ft 155 kts 83°
2026-04-25 00:34 10.03933 -66.05040 8989 ft 155 kts 84°
2026-04-25 00:35 10.04016 -66.03951 8994 ft 155 kts 84°
2026-04-25 00:35 10.04094 -66.02865 8997 ft 153 kts 85°
2026-04-25 00:35 10.04177 -66.01786 8997 ft 153 kts 84°
2026-04-25 00:35 10.04264 -66.00704 8996 ft 154 kts 84°
2026-04-25 00:36 10.04351 -65.99618 8993 ft 154 kts 84°
2026-04-25 00:36 10.04437 -65.98548 8994 ft 154 kts 84°
2026-04-25 00:36 10.04520 -65.97466 8993 ft 154 kts 84°
2026-04-25 00:36 10.04604 -65.96376 8994 ft 155 kts 84°
2026-04-25 00:37 10.04690 -65.95288 8997 ft 155 kts 84°
2026-04-25 00:37 10.04779 -65.94201 8998 ft 155 kts 84°
2026-04-25 00:37 10.04867 -65.93112 8996 ft 155 kts 84°
2026-04-25 00:37 10.04954 -65.92026 8991 ft 154 kts 84°
2026-04-25 00:38 10.05044 -65.90940 8993 ft 154 kts 84°
2026-04-25 00:38 10.05134 -65.89858 8992 ft 154 kts 84°
2026-04-25 00:38 10.05221 -65.88776 8993 ft 154 kts 84°
2026-04-25 00:38 10.05308 -65.87697 8993 ft 153 kts 84°
2026-04-25 00:39 10.05396 -65.86616 8994 ft 154 kts 84°
2026-04-25 00:39 10.05485 -65.85531 8991 ft 154 kts 84°
2026-04-25 00:39 10.05573 -65.84443 8993 ft 155 kts 84°
2026-04-25 00:39 10.05666 -65.83357 8995 ft 155 kts 84°
2026-04-25 00:40 10.05757 -65.82265 8991 ft 155 kts 84°
2026-04-25 00:40 10.05847 -65.81180 8994 ft 154 kts 84°
2026-04-25 00:40 10.05940 -65.80110 8994 ft 154 kts 84°
2026-04-25 00:40 10.06034 -65.79025 8996 ft 154 kts 84°
2026-04-25 00:41 10.06125 -65.77939 8992 ft 155 kts 84°
2026-04-25 00:41 10.06219 -65.76853 8992 ft 155 kts 84°
2026-04-25 00:41 10.06311 -65.75764 8992 ft 155 kts 84°
2026-04-25 00:41 10.06402 -65.74673 8992 ft 155 kts 84°
2026-04-25 00:42 10.06495 -65.73584 8992 ft 154 kts 84°
2026-04-25 00:42 10.06588 -65.72498 8991 ft 154 kts 84°
2026-04-25 00:42 10.06681 -65.71417 8992 ft 154 kts 84°
2026-04-25 00:42 10.06774 -65.70336 8992 ft 154 kts 84°
2026-04-25 00:43 10.06867 -65.69251 8996 ft 155 kts 84°
2026-04-25 00:43 10.06958 -65.68165 8994 ft 155 kts 84°
2026-04-25 00:43 10.07050 -65.67078 8993 ft 154 kts 84°
2026-04-25 00:43 10.07143 -65.65991 8992 ft 155 kts 84°
2026-04-25 00:44 10.07235 -65.64916 8988 ft 155 kts 84°
2026-04-25 00:44 10.07331 -65.63826 8988 ft 154 kts 84°
2026-04-25 00:44 10.07426 -65.62733 8989 ft 154 kts 84°
2026-04-25 00:44 10.07506 -65.61650 8987 ft 154 kts 85°
2026-04-25 00:45 10.07579 -65.60565 8991 ft 154 kts 85°
2026-04-25 00:45 10.07653 -65.59479 8991 ft 154 kts 85°
2026-04-25 00:45 10.07726 -65.58393 8992 ft 154 kts 85°
2026-04-25 00:45 10.07801 -65.57316 8994 ft 154 kts 85°
2026-04-25 00:46 10.07877 -65.56231 8988 ft 154 kts 85°
2026-04-25 00:46 10.07952 -65.55142 8990 ft 155 kts 85°
2026-04-25 00:46 10.08104 -65.52967 8988 ft 154 kts 85°
2026-04-25 00:47 10.08181 -65.51879 8994 ft 154 kts 85°
2026-04-25 00:47 10.08257 -65.50791 8991 ft 154 kts 85°
2026-04-25 00:47 10.08333 -65.49706 8988 ft 154 kts 85°
2026-04-25 00:47 10.08410 -65.48620 8988 ft 154 kts 85°
2026-04-25 00:48 10.08488 -65.47534 8988 ft 154 kts 85°
2026-04-25 00:48 10.08564 -65.46450 8987 ft 154 kts 85°
2026-04-25 00:48 10.08616 -65.45370 8988 ft 154 kts 88°
2026-04-25 00:48 10.08641 -65.44282 8988 ft 154 kts 87°
2026-04-25 00:49 10.08681 -65.43199 8984 ft 154 kts 87°
2026-04-25 00:49 10.08718 -65.42116 8982 ft 153 kts 87°
2026-04-25 00:49 10.08756 -65.41035 8985 ft 153 kts 87°
2026-04-25 00:49 10.08796 -65.39950 8981 ft 154 kts 87°
2026-04-25 00:50 10.08835 -65.38851 8985 ft 154 kts 87°
2026-04-25 00:50 10.08872 -65.37764 8988 ft 154 kts 87°
2026-04-25 00:50 10.08908 -65.36679 8985 ft 154 kts 87°
2026-04-25 00:50 10.08944 -65.35607 8985 ft 154 kts 87°
2026-04-25 00:51 10.08981 -65.34526 8985 ft 153 kts 87°
2026-04-25 00:51 10.09018 -65.33432 8983 ft 153 kts 87°
2026-04-25 00:51 10.09055 -65.32341 8895 ft 157 kts 87°
2026-04-25 00:51 10.09093 -65.31204 8706 ft 165 kts 87°
2026-04-25 00:52 10.09135 -65.30026 8534 ft 168 kts 87°
2026-04-25 00:52 10.09182 -65.28833 8368 ft 169 kts 87°
2026-04-25 00:52 10.09229 -65.27640 8200 ft 170 kts 87°
2026-04-25 00:52 10.09281 -65.26445 8031 ft 170 kts 87°
2026-04-25 00:53 10.09335 -65.25248 7865 ft 169 kts 87°
2026-04-25 00:53 10.09389 -65.24071 7698 ft 169 kts 87°
2026-04-25 00:53 10.09443 -65.22879 7534 ft 169 kts 88°
2026-04-25 00:53 10.09474 -65.21683 7364 ft 169 kts 89°
2026-04-25 00:54 10.09487 -65.20486 7202 ft 169 kts 89°
2026-04-25 00:54 10.09503 -65.19290 7037 ft 169 kts 89°
2026-04-25 00:54 10.09522 -65.18095 6876 ft 169 kts 89°
2026-04-25 00:54 10.09542 -65.16904 6712 ft 169 kts 89°
2026-04-25 00:55 10.09562 -65.15739 6553 ft 169 kts 89°
2026-04-25 00:55 10.09584 -65.14530 6368 ft 169 kts 89°
2026-04-25 00:55 10.09605 -65.13338 6148 ft 169 kts 89°
2026-04-25 00:55 10.09625 -65.12156 5934 ft 170 kts 89°
2026-04-25 00:56 10.09647 -65.10959 5714 ft 169 kts 89°
2026-04-25 00:56 10.09670 -65.09766 5498 ft 169 kts 89°
2026-04-25 00:56 10.09696 -65.08571 5282 ft 169 kts 89°
2026-04-25 00:56 10.09723 -65.07380 5063 ft 169 kts 89°
2026-04-25 00:57 10.09751 -65.06193 4849 ft 168 kts 89°
2026-04-25 00:57 10.09780 -65.05009 4629 ft 168 kts 89°
2026-04-25 00:57 10.09806 -65.03827 4413 ft 167 kts 89°
2026-04-25 00:57 10.09854 -65.02648 4187 ft 167 kts 86°
2026-04-25 00:58 10.09906 -65.01475 4016 ft 166 kts 87°
2026-04-25 00:58 10.09956 -65.00310 3844 ft 165 kts 87°
2026-04-25 00:58 10.10002 -64.99153 3676 ft 164 kts 87°
2026-04-25 00:58 10.10042 -64.98001 3508 ft 163 kts 88°
2026-04-25 00:59 10.10080 -64.96858 3337 ft 161 kts 86°
2026-04-25 00:59 10.10114 -64.95740 3238 ft 157 kts 86°
2026-04-25 00:59 10.10147 -64.94648 3234 ft 149 kts 87°
2026-04-25 00:59 10.10181 -64.93609 3222 ft 146 kts 87°
2026-04-25 01:00 10.10210 -64.92582 3223 ft 145 kts 87°
2026-04-25 01:00 10.10243 -64.91559 3221 ft 145 kts 87°
2026-04-25 01:00 10.10411 -64.90566 3212 ft 143 kts 69°
2026-04-25 01:00 10.10987 -64.89759 3234 ft 143 kts 44°
2026-04-25 01:01 10.11880 -64.89300 3233 ft 147 kts 18°
2026-04-25 01:01 10.12901 -64.89270 3239 ft 150 kts 357°
2026-04-25 01:01 10.13941 -64.89378 3243 ft 151 kts 358°
2026-04-25 01:01 10.14984 -64.89367 3242 ft 149 kts
2026-04-25 01:02 10.16009 -64.89226 3238 ft 148 kts 11°
2026-04-25 01:02 10.16999 -64.88971 3234 ft 146 kts 20°
2026-04-25 01:02 10.17958 -64.88631 3232 ft 145 kts 23°
2026-04-25 01:02 10.18874 -64.88146 3097 ft 153 kts 32°
2026-04-25 01:03 10.19816 -64.87611 2932 ft 157 kts 31°
2026-04-25 01:03 10.20777 -64.87072 2768 ft 159 kts 31°
2026-04-25 01:03 10.21698 -64.86460 2596 ft 158 kts 40°
2026-04-25 01:03 10.22550 -64.85749 2431 ft 159 kts 41°
2026-04-25 01:04 10.23408 -64.85041 2257 ft 158 kts 41°
2026-04-25 01:04 10.24263 -64.84335 2092 ft 159 kts 41°
2026-04-25 01:04 10.25094 -64.83609 1914 ft 158 kts 47°
2026-04-25 01:04 10.25641 -64.82647 1730 ft 160 kts 70°
2026-04-25 01:05 10.25739 -64.81538 1542 ft 156 kts 98°
2026-04-25 01:05 10.25299 -64.80560 1373 ft 154 kts 127°
2026-04-25 01:05 10.24481 -64.79926 1347 ft 147 kts 149°
2026-04-25 01:05 10.23624 -64.79409 1339 ft 141 kts 147°
2026-04-25 01:06 10.22787 -64.78900 1338 ft 138 kts 147°
2026-04-25 01:06 10.21960 -64.78403 1336 ft 137 kts 147°
2026-04-25 01:06 10.21168 -64.77874 1333 ft 136 kts 139°
2026-04-25 01:06 10.20460 -64.77232 1340 ft 137 kts 137°
2026-04-25 01:07 10.19743 -64.76590 1337 ft 136 kts 137°
2026-04-25 01:07 10.19043 -64.75968 1335 ft 131 kts 134°
2026-04-25 01:07 10.18395 -64.75391 1338 ft 118 kts 135°
2026-04-25 01:07 10.17793 -64.74883 1335 ft 107 kts 135°
2026-04-25 01:08 10.17247 -64.74430 1296 ft 97 kts 134°
2026-04-25 01:08 10.16726 -64.73980 1126 ft 98 kts 136°
2026-04-25 01:08 10.16213 -64.73542 972 ft 97 kts 135°
2026-04-25 01:08 10.15712 -64.73131 832 ft 90 kts 136°
2026-04-25 01:09 10.15231 -64.72746 695 ft 86 kts 137°
2026-04-25 01:09 10.14777 -64.72335 568 ft 91 kts 133°
2026-04-25 01:09 10.14282 -64.71909 459 ft 92 kts 139°
2026-04-25 01:09 10.13847 -64.71480 445 ft 83 kts 134°
2026-04-25 01:10 10.13433 -64.71079 381 ft 83 kts 136°
2026-04-25 01:10 10.13005 -64.70689 266 ft 82 kts 140°
2026-04-25 01:10 10.12562 -64.70341 141 ft 79 kts 142°
2026-04-25 01:10 10.12126 -64.70003 27 ft 75 kts 143°
2026-04-25 01:11 10.11776 -64.69729 19 ft 54 kts 142°
2026-04-25 01:11 10.11514 -64.69527 22 ft 41 kts 143°
2026-04-25 01:11 10.11374 -64.69419 24 ft 35 kts 143°
2026-04-25 01:11 10.11199 -64.69285 25 ft 30 kts 142°
2026-04-25 01:12 10.11035 -64.69159 27 ft 29 kts 142°
2026-04-25 01:12 10.10873 -64.69032 26 ft 29 kts 143°
2026-04-25 01:12 10.10745 -64.68931 26 ft 10 kts 135°
2026-04-25 01:12 10.10740 -64.68853 25 ft 13 kts 77°
2026-04-25 01:13 10.10759 -64.68769 26 ft 12 kts 76°
2026-04-25 01:13 10.10747 -64.68715 26 ft 8 kts 167°
2026-04-25 01:13 10.10722 -64.68682 27 ft 9 kts 44°
2026-04-25 01:13 10.10760 -64.68675 26 ft 0 kts 352°